Location: Cahoon Acres
(40.8736°N, 111.8994°W)
Time: 11:33:57
(UTC+00:00)

SR - Pass Details

Date: 14 June 2020
Orbit: 583 x 872 km, 66.7° (Epoch: 14 July)

Event Time Altitude Azimuth Distance (km) Brightness Sun altitude
Rises 20:21:48 0° 254° (WSW) 3,200 ? 69.1°
Reaches altitude 10° 20:25:06 10° 275° (W) 2,216 ? 68.8°
Maximum altitude 20:28:17 17° 314° (NW) 1,748 ? 68.4°
Drops below altitude 10° 20:31:21 10° 354° (N) 2,103 ? 68.0°
Sets 20:34:23 0° 16° (NNE) 2,963 ? 67.6°
